Home   Weather   Madison   Past weeks
Flag for USA

Past Weather in Madison, Wisconsin, USA — Yesterday and Last 2 Weeks

Now
30 °F

Overcast.


Feels Like: 22 °F
Forecast: 33 / 21 °F
Wind: 9 mph from Northwest

Location: Dane County Regional-Truax Field

Current Time: Jan 16, 2019 at 4:15:25 am

Latest Report: Jan 16, 2019 at 2:53 am


Visibility: 10 mi

Pressure: 30.13 "Hg

Humidity: 64%

Dew Point: 19 °F

Location of MadisonLocation

Past Weather in Madison — Graph

°F

Madison Temperature Yesterday

Maximum temperature yesterday: 33 °F (at 10:53 pm)
Minimum temperature yesterday: 26 °F (at 12:53 am)
Average temperature yesterday: 29 °F

High & Low Weather Summary for the Past Weeks

 TemperatureHumidityPressure
High50 °F (Jan 5, 1:53 pm)96% (Jan 2, 7:53 am)30.50 "Hg (Jan 2, 7:53 am)
Low12 °F (Jan 10, 12:53 am)46% (Jan 5, 2:53 pm)29.43 "Hg (Jan 7, 1:06 pm)
Average28 °F78%30.12 "Hg
* Reported Jan 1 2:53 am — Jan 16 2:53 am, Madison. Weather by CustomWeather, © 2019

Note: Actual official high and low records may vary slightly from our data, if they occured in-between our weather recording intervals... More about our weather records

Advertising

Madison Weather History for the Previous 24 Hours

Scroll right to see more
 ConditionsComfort  
Time TempWeatherWind HumidityBarometerVisibility
2:53 am
Wed, Jan 16
30 °FOvercast.9 mph64%30.13 "Hg10 mi
1:53 am31 °FOvercast.12 mph69%30.10 "Hg10 mi
12:53 am33 °FOvercast.8 mph72%30.06 "Hg10 mi
11:53 pm
Tue, Jan 15
33 °FOvercast.7 mph82%30.05 "Hg10 mi
10:53 pm33 °FOvercast.7 mph85%30.03 "Hg10 mi
10:25 pm32 °FOvercast.9 mph88%29.99 "Hg9 mi
9:53 pm32 °FLow clouds.6 mph88%30.01 "Hg8 mi
9:30 pm32 °FLow clouds.6 mph88%29.98 "Hg8 mi
9:23 pm32 °FLight freezing rain. Low clouds.6 mph88%29.98 "Hg8 mi
8:53 pm31 °FDrizzle. Overcast.7 mph89%30.00 "Hg8 mi
8:32 pm31 °FDrizzle. Low clouds.5 mph89%29.97 "Hg7 mi
7:53 pm31 °FOvercast.5 mph85%30.00 "Hg8 mi
7:26 pm31 °FOvercast.9 mph85%29.97 "Hg10 mi
6:53 pm30 °FLow clouds.10 mph89%30.01 "Hg10 mi
5:53 pm30 °FLow clouds.10 mph89%29.98 "Hg10 mi
5:13 pm30 °FLow clouds.12 mph85%29.96 "Hg10 mi
4:53 pm30 °FOvercast.9 mph85%29.98 "Hg10 mi
4:35 pm30 °FOvercast.10 mph85%29.96 "Hg10 mi
3:53 pm30 °FLow clouds.6 mph85%30.00 "Hg10 mi
2:53 pm29 °FLow clouds.9 mph85%30.01 "Hg10 mi
1:53 pm29 °FLow clouds.7 mph85%30.04 "Hg10 mi
1:08 pm29 °FLow clouds.12 mph85%30.02 "Hg10 mi
12:53 pm29 °FOvercast.12 mph82%30.06 "Hg10 mi
11:53 am29 °FOvercast.7 mph85%30.09 "Hg10 mi
10:53 am29 °FOvercast.9 mph82%30.13 "Hg7 mi
9:53 am28 °FOvercast.8 mph85%30.16 "Hg10 mi
8:53 am28 °FOvercast.8 mph85%30.16 "Hg8 mi
7:53 am27 °FOvercast.3 mph89%30.16 "Hg8 mi
6:53 am27 °FOvercast.3 mph89%30.18 "Hg9 mi
5:53 am27 °FOvercast.3 mph89%30.19 "Hg8 mi
4:53 am27 °FOvercast.6 mph85%30.20 "Hg8 mi
Weather by CustomWeather, © 2019

See weather overview